Find Starlink 11204

NORAD ID: 60931 Int'l Des: 2024-155 Owner: SPXS Country: US Constellation: starlink operational
LEOCIRCULAR

当前视图

正在加载3D地球...

About Starlink 11204

Starlink 11204 (NORAD 60931) is a starlink constellation satellite (v2 mini d2c) launched Aug 31, 2024 by SPXS of US. It operates in LEO, CIRCULAR orbit with a mass of 960.00 kg.

关于 Starlink 11204

正在加载描述...

即将过境

Passes for default location (London). Set your location on the main map for personalized predictions.

高度历史

Loading altitude history...

两行轨道根数

1 60931U 24155H 26171.31967671 .00000789 00000-0 11367-4 0 9999
2 60931 53.1597 195.1705 0001124 91.5081 268.6066 15.69713094104522
Epoch: Jun 20, 2026 • Age: 50 hours

当前状态

高度 376.3 km
速度 7.68 km/s
星下点 -46.74°S, 2.51°E
发射日期 Aug 31, 2024
运行时间 1.8 years
类型 internet

技术详情

分类 Payload
质量 960.00 kg
干质量 910.00 kg
总质量 960.00 kg
长度 0.30 m
直径 4.10 m
跨度 29.00 m
形状 Box + pan
制造商 SPXS
平台类型 Starlink V2MD
阶段状态 In Orbit
所有者/国家 SPXS/US

Most Searched